Location: Township of Marena
(38.1747°N, 99.6798°W)
Time: 12:05:11
(UTC+00:00)

Atlas Centaur 2 - Pass Details

Date: 26 October 2020
Orbit: 459 x 1309 km, 30.4° (Epoch: 25 November)

Event Time Altitude Azimuth Distance (km) Brightness Sun altitude
Rises 00:17:33 0° 227° (SW) 4,141 6.9 -6.7°
Reaches altitude 10° 00:20:42 10° 218° (SW) 3,246 6.0 -7.3°
Maximum altitude 00:27:54 33° 159° (SSE) 2,057 4.1 -8.7°
Drops below altitude 10° 00:35:08 10° 100° (E) 3,264 4.6 -10.1°
Enters shadow 00:35:08 10° 100° (E) 3,264 4.6 -10.1°
